Location: *
(60.1759°S, 155.0663°W)
Time: 06:39:24
(UTC+00:00)

SMAP - Pass Details

Date: 17 September 2019
Orbit: 681 x 683 km, 98.1° (Epoch: 18 October)

Event Time Altitude Azimuth Distance (km) Brightness Sun altitude
Rises 15:37:12 0° 10° (N) 3,056 6.5 -6.6°
Reaches altitude 10° 15:39:27 10° 6° (N) 2,148 5.6 -6.3°
Maximum altitude 15:44:08 65° 283° (WNW) 768 3.1 -5.7°
Drops below altitude 10° 15:48:53 10° 201° (SSW) 2,174 5.5 -5.1°
Sets 15:51:10 0° 197° (SSW) 3,097 6.3 -4.8°
